Regional Weather Roundup
Issued by NWS

Home | Current Version | Previous Version | Text Only | Print | Product List | Glossary On
Versions: 1 2 3 4 5 6 7 8 9 10 11 12 13 14 15 16 17 18 19 20 21 22 23 24 25 26 27 28 29 30 31 32 33 34 35 36 37 38 39 40 41 42 43 44 45 46 47 48 49 50
000
ASUS44 KOUN 121910
RWROK

WEATHER ROUNDUP FOR OKLAHOMA
NATIONAL WEATHER SERVICE NORMAN OK
200 PM CDT SAT JUL 12 2014

NOTE: "FAIR" INDICATES FEW OR NO CLOUDS BELOW 12,000 FEET WITH NO
      SIGNIFICANT WEATHER AND/OR OBSTRUCTIONS TO VISIBILITY.

OKZ001>007-009>012-014-015-017-122000-
NORTHWEST OKLAHOMA AND THE PANHANDLE

CITY           SKY/WX    TMP DP  RH WIND       PRES   REMARKS
GAGE           SUNNY     92  61  35 SW21G32   30.10F HX  92
ENID/WOODRING  PTSUNNY   93  63  36 SW21G30   30.06F HX  94
$$

OKZ016-021>023-033>039-044-045-122000-
SOUTHWEST OKLAHOMA

CITY           SKY/WX    TMP DP  RH WIND       PRES   REMARKS
LAWTON/REGL    SUNNY     98  50  19 S13G22    30.09F HX  95
FREDERICK      SUNNY     98  54  22 S22G31    30.07F HX  96
CLINTON        SUNNY     96  51  21 SW20G31   30.13S HX  93
HOBART         SUNNY     97  54  23 SW22G32   30.11F HX  95
$$

OKZ018>020-024>031-122000-
CENTRAL OKLAHOMA

CITY           SKY/WX    TMP DP  RH WIND       PRES   REMARKS
OKLAHOMA CITY  SUNNY     94  60  32 SW17G25   30.10F HX  94
OKC/WILEY POST SUNNY     92  63  38 SW13G22   30.10F HX  93
STILLWATER     SUNNY     94  65  38 SW10G23   30.08F HX  96
GUTHRIE        SUNNY     96  61  31 SW15G24   30.09F HX  96
$$

OKZ008-013-054>072-122000-
NORTHEAST OKLAHOMA

CITY           SKY/WX    TMP DP  RH WIND       PRES   REMARKS
TULSA          MOSUNNY   93  66  40 S13G24    30.07F HX  96
TULSA/JONES    SUNNY     92  66  42 SW12G18   30.08F HX  94
PONCA CITY     MOSUNNY   93  65  39 SW14G23   30.06F HX  95
BARTLESVILLE   SUNNY     92  72  51 SW10      30.08F HAZE    HX  99
MUSKOGEE       SUNNY     91  68  46 SW13      30.12F HX  95
$$

OKZ032-040>043-046>053-073>077-122000-
SOUTH CENTRAL/SOUTHEAST OKLAHOMA

CITY           SKY/WX    TMP DP  RH WIND       PRES   REMARKS
ARDMORE/DWNTWN SUNNY     95  41  15 W5        30.11F HX  91
MCALESTER      SUNNY     91  65  41 S10       30.12F HX  93
$$



USA.gov is the U.S. government's official web portal to all federal, state and local government web resources and services.